Location: Newark
(31.5350°N, 35.0986°E)
Time: 22:01:46
(UTC+00:00)

SR - Pass Details

Date: 21 October 2019
Orbit: 574 x 882 km, 66.7° (Epoch: 18 November)

Event Time Altitude Azimuth Distance (km) Brightness Sun altitude
Rises 19:04:08 0° 211° (SSW) 2,954 - -51.6°
Reaches altitude 10° 19:06:21 10° 215° (SW) 2,090 - -52.0°
Maximum altitude 19:11:03 65° 297° (WNW) 784 - -52.9°
Drops below altitude 10° 19:16:17 10° 19° (NNE) 2,306 - -53.9°
Sets 19:18:50 0° 23° (NNE) 3,286 - -54.4°
